Total_Precipitation_Accumulation
0.00 0.00 0.00 0.00 0.00 0.00 0.00 0.00 0.00 0.00 0.00 0.00 0.00 0.00 0.00 0.00 0.01 0.02 0.02 0.08 0.12 0.12 0.16 0.19 0.20 0.23 0.29 0.28 0.32 0.44 0.58 0.66 0.67 0.68 0.62 0.59 0.54 0.56 0.51 0.53 0.55 0.58 0.63 0.82
0.00 0.00 0.00 0.00 0.00 0.00 0.00 0.00 0.00 0.00 0.00 0.00 0.00 0.00 0.00 0.01 0.02 0.03 0.05 0.07 0.09 0.12 0.14 0.18 0.22 0.27 0.31 0.33 0.37 0.42 0.57 0.71 0.71 0.77 0.84 0.92 1.01 0.85 0.72 0.78 0.84 0.88 0.97 1.01
0.00 0.00 0.00 0.00 0.00 0.00 0.00 0.00 0.00 0.00 0.00 0.00 0.00 0.00 0.00 0.01 0.04 0.08 0.11 0.17 0.25 0.29 0.28 0.24 0.22 0.25 0.29 0.34 0.38 0.44 0.56 0.69 0.74 0.89 1.08 1.20 1.30 1.17 1.19 1.30 1.36 1.35 1.38 1.35
0.00 0.00 0.00 0.00 0.00 0.00 0.00 0.00 0.00 0.00 0.00 0.00 0.00 0.00 0.00 0.01 0.04 0.08 0.12 0.20 0.35 0.44 0.39 0.36 0.33 0.34 0.37 0.41 0.50 0.63 0.73 0.82 0.95 1.09 1.27 1.38 1.42 1.45 1.60 1.81 1.72 1.49 1.34 1.19
0.00 0.00 0.00 0.00 0.00 0.00 0.00 0.00 0.00 0.00 0.00 0.00 0.00 0.00 0.00 0.01 0.02 0.06 0.17 0.29 0.42 0.49 0.47 0.49 0.50 0.51 0.52 0.56 0.64 0.78 0.89 0.97 1.04 1.11 1.20 1.31 1.37 1.41 1.42 1.40 1.29 1.14 0.99 0.85
0.00 0.00 0.00 0.00 0.00 0.00 0.00 0.00 0.00 0.00 0.00 0.00 0.01 0.01 0.01 0.02 0.02 0.05 0.18 0.32 0.43 0.49 0.52 0.56 0.57 0.58 0.60 0.62 0.63 0.65 0.68 0.75 0.82 0.86 0.91 0.96 0.96 0.95 0.90 0.82 0.75 0.69 0.62 0.50
0.00 0.01 0.01 0.01 0.00 0.00 0.00 0.00 0.00 0.00 0.00 0.01 0.01 0.02 0.04 0.04 0.04 0.08 0.19 0.28 0.33 0.36 0.40 0.47 0.50 0.54 0.56 0.57 0.57 0.55 0.54 0.54 0.52 0.50 0.51 0.55 0.56 0.56 0.54 0.55 0.53 0.50 0.45 0.37
0.01 0.03 0.03 0.02 0.01 0.01 0.00 0.01 0.03 0.05 0.02 0.00 0.00 0.01 0.09 0.08 0.13 0.20 0.27 0.31 0.32 0.32 0.34 0.42 0.49 0.53 0.53 0.50 0.50 0.49 0.49 0.48 0.41 0.37 0.37 0.39 0.42 0.43 0.40 0.38 0.35 0.34 0.35 0.35
0.01 0.01 0.01 0.01 0.02 0.01 0.01 0.00 0.01 0.08 0.06 0.01 0.00 0.01 0.06 0.05 0.10 0.25 0.33 0.35 0.39 0.40 0.36 0.36 0.37 0.39 0.40 0.37 0.37 0.41 0.49 0.50 0.48 0.47 0.43 0.37 0.36 0.34 0.29 0.26 0.25 0.25 0.26 0.30
0.00 0.00 0.00 0.00 0.00 0.01 0.01 0.01 0.04 0.06 0.04 0.01 0.00 0.00 0.03 0.05 0.04 0.10 0.13 0.12 0.16 0.20 0.20 0.18 0.18 0.18 0.18 0.22 0.29 0.37 0.41 0.41 0.42 0.43 0.44 0.42 0.38 0.31 0.24 0.20 0.20 0.20 0.22 0.25
0.00 0.00 0.00 0.00 0.00 0.01 0.01 0.01 0.02 0.02 0.02 0.02 0.02 0.01 0.02 0.02 0.03 0.04 0.05 0.06 0.09 0.10 0.12 0.16 0.16 0.19 0.20 0.24 0.31 0.39 0.41 0.41 0.43 0.42 0.42 0.41 0.39 0.36 0.29 0.23 0.20 0.20 0.22 0.25
0.00 0.00 0.00 0.00 0.00 0.01 0.01 0.01 0.01 0.01 0.01 0.02 0.02 0.01 0.01 0.02 0.03 0.06 0.11 0.12 0.14 0.15 0.15 0.17 0.17 0.23 0.27 0.27 0.28 0.34 0.37 0.42 0.51 0.60 0.68 0.69 0.61 0.51 0.41 0.31 0.25 0.23 0.24 0.26
0.00 0.00 0.00 0.00 0.00 0.01 0.01 0.01 0.01 0.01 0.01 0.01 0.02 0.01 0.00 0.01 0.02 0.09 0.29 0.38 0.28 0.18 0.11 0.11 0.14 0.20 0.26 0.29 0.31 0.35 0.38 0.42 0.51 0.66 0.90 1.01 0.93 0.79 0.60 0.41 0.26 0.20 0.19 0.20
0.00 0.00 0.00 0.00 0.00 0.00 0.00 0.00 0.01 0.01 0.02 0.01 0.01 0.01 0.00 0.00 0.01 0.01 0.05 0.10 0.14 0.12 0.09 0.08 0.11 0.17 0.22 0.29 0.37 0.42 0.44 0.43 0.50 0.62 0.78 0.84 0.77 0.66 0.53 0.35 0.22 0.16 0.14 0.14
0.00 0.00 0.00 0.00 0.00 0.00 0.00 0.00 0.00 0.01 0.01 0.03 0.03 0.01 0.01 0.01 0.03 0.04 0.04 0.07 0.11 0.12 0.10 0.08 0.11 0.16 0.19 0.23 0.30 0.32 0.28 0.23 0.27 0.39 0.45 0.50 0.44 0.33 0.27 0.22 0.17 0.14 0.14 0.15
0.00 0.00 0.00 0.00 0.00 0.00 0.00 0.00 0.00 0.01 0.01 0.01 0.01 0.01 0.02 0.03 0.09 0.13 0.09 0.08 0.09 0.09 0.08 0.08 0.11 0.16 0.17 0.16 0.17 0.13 0.11 0.12 0.16 0.22 0.26 0.32 0.32 0.25 0.18 0.14 0.10 0.08 0.09 0.11
0.00 0.00 0.00 0.00 0.01 0.00 0.01 0.01 0.01 0.01 0.01 0.02 0.03 0.04 0.04 0.04 0.06 0.09 0.08 0.05 0.04 0.04 0.03 0.03 0.06 0.08 0.06 0.05 0.05 0.05 0.07 0.10 0.14 0.19 0.24 0.31 0.32 0.27 0.22 0.15 0.11 0.08 0.08 0.08
0.01 0.01 0.01 0.00 0.01 0.01 0.01 0.00 0.01 0.02 0.03 0.04 0.05 0.05 0.06 0.07 0.06 0.08 0.10 0.07 0.04 0.02 0.02 0.01 0.01 0.01 0.01 0.01 0.01 0.03 0.04 0.09 0.13 0.18 0.22 0.26 0.29 0.26 0.22 0.20 0.19 0.17 0.13 0.09
0.01 0.01 0.01 0.01 0.01 0.01 0.02 0.03 0.03 0.04 0.05 0.04 0.06 0.07 0.09 0.10 0.09 0.09 0.07 0.04 0.02 0.01 0.01 0.01 0.01 0.01 0.01 0.01 0.01 0.03 0.07 0.08 0.10 0.16 0.22 0.25 0.28 0.26 0.24 0.23 0.23 0.20 0.16 0.12
0.00 0.01 0.01 0.00 0.01 0.03 0.03 0.04 0.06 0.06 0.16 0.16 0.13 0.10 0.07 0.05 0.06 0.03 0.01 0.00 0.00 0.00 0.00 0.01 0.01 0.01 0.01 0.02 0.05 0.08 0.09 0.10 0.13 0.16 0.23 0.28 0.29 0.30 0.29 0.29 0.27 0.23 0.21 0.17
0.00 0.00 0.01 0.02 0.04 0.04 0.02 0.04 0.05 0.14 0.21 0.09 0.04 0.03 0.02 0.05 0.06 0.03 0.01 0.00 0.00 0.00 0.01 0.01 0.02 0.03 0.05 0.08 0.11 0.12 0.11 0.12 0.11 0.14 0.19 0.27 0.29 0.32 0.34 0.36 0.34 0.31 0.28 0.25
0.00 0.01 0.02 0.03 0.07 0.10 0.04 0.02 0.04 0.07 0.05 0.03 0.02 0.02 0.03 0.03 0.02 0.01 0.01 0.01 0.00 0.00 0.01 0.01 0.02 0.03 0.05 0.08 0.11 0.12 0.11 0.10 0.12 0.16 0.22 0.27 0.29 0.25 0.28 0.36 0.38 0.38 0.38 0.33
0.00 0.01 0.02 0.03 0.05 0.04 0.02 0.02 0.03 0.03 0.04 0.04 0.04 0.03 0.03 0.02 0.02 0.02 0.02 0.01 0.01 0.01 0.02 0.02 0.03 0.05 0.08 0.11 0.15 0.17 0.15 0.16 0.18 0.20 0.25 0.28 0.28 0.28 0.33 0.38 0.42 0.45 0.46 0.43
0.00 0.01 0.02 0.05 0.02 0.01 0.02 0.03 0.02 0.02 0.02 0.02 0.02 0.02 0.02 0.03 0.03 0.03 0.03 0.03 0.03 0.03 0.03 0.04 0.05 0.07 0.10 0.13 0.18 0.21 0.23 0.26 0.25 0.25 0.25 0.27 0.29 0.29 0.32 0.39 0.44 0.47 0.52 0.53
0.01 0.01 0.03 0.06 0.03 0.02 0.02 0.02 0.01 0.00 0.00 0.00 0.01 0.02 0.03 0.04 0.04 0.04 0.04 0.05 0.05 0.04 0.04 0.05 0.08 0.11 0.14 0.18 0.22 0.25 0.28 0.31 0.32 0.31 0.29 0.28 0.29 0.32 0.37 0.40 0.45 0.47 0.52 0.53
0.01 0.02 0.04 0.06 0.05 0.05 0.05 0.02 0.01 0.01 0.01 0.01 0.02 0.02 0.03 0.04 0.04 0.04 0.05 0.05 0.05 0.05 0.05 0.07 0.09 0.11 0.13 0.18 0.24 0.27 0.31 0.36 0.37 0.38 0.38 0.35 0.31 0.32 0.36 0.39 0.39 0.40 0.43 0.44